Weather History for Elizabethtown, NC

Change the Weather History Date:

Monday, June 10, 2013

  Actual Average (KILM) Record (KILM)
Temperature  
Mean Temperature 78 °F 77 °F  
Max Temperature 86 °F 86 °F 99 °F (1993)
Min Temperature 70 °F 68 °F 51 °F (1913)
Degree Days  
Heating Degree Days 0 0  
Month to date heating degree days 0  
Since 1 June heating degree days 0  
Since 1 July heating degree days 2409  
Cooling Degree Days 13 12  
Month to date cooling degree days 108  
Year to date cooling degree days 389  
Since 1 June cooling degree days 108  
Growing Degree Days 28 (Base 50)    
Moisture  
Dew Point 73 °F    
Average Humidity 89    
Maximum Humidity 100    
Minimum Humidity 60    
Precipitation  
Precipitation 1.60 in 0.17 in 3.25 in (1966)
Month to date precipitation 1.68  
Year to date precipitation 20.58  
Sea Level Pressure  
Sea Level Pressure 30.05 in    
Wind  
Wind Speed 6 mph (South)    
Max Wind Speed 14 mph    
Max Gust Speed 23 mph    
Visibility 9 miles    
Events Rain    
T = Trace of Precipitation, MM = Missing Value Source: NWS Daily Summary

Daily Weather History Graph

Daily Weather History Graph

Search for Another Location

Airport:

Trip Planner

Search our weather history database for the weather conditions in past years. The results will help you decide how hot, cold, wet, or windy it might be!

Date:

Astronomy

Jun. 10, 2013 Rise Set
Actual Time 6:00 AM EDT 8:26 PM EDT
Civil Twilight 5:31 AM EDT 8:56 PM EDT
Nautical Twilight 4:55 AM EDT 9:32 PM EDT
Astronomical Twilight 4:15 AM EDT 10:12 PM EDT
Moon 7:44 AM EDT (6/10) 9:56 PM EDT (6/10)
Length of Visible Light 15h 24m
Length of Day
14h 25m
Waxing Crescent, 4% of the Moon is Illuminated
Jun 10
Waxing Crescent
Jun 16
First Quarter
Jun 23
Full
Jun 30
Last Quarter
Jul 8
New

Hourly Weather History & Observations

Time (EDT) Temp. Heat Index Dew Point Humidity Pressure Visibility Wind Dir Wind Speed Gust Speed Precip Events Conditions
12:15 AM 73.4 °F - 73.4 °F 100% 30.14 in 7.0 mi SSE 3.5 mph - N/A   Scattered Clouds
12:35 AM 73.4 °F - 73.4 °F 100% 30.14 in 7.0 mi SE 4.6 mph - N/A   Scattered Clouds
12:55 AM 73.8 °F - 73.8 °F 100% 30.13 in 7.0 mi Calm Calm - N/A   Mostly Cloudy
1:15 AM 73.9 °F - 73.9 °F 100% 30.13 in 10.0 mi SSE 3.5 mph - N/A   Mostly Cloudy
1:35 AM 74.3 °F - 74.3 °F 100% 30.12 in 10.0 mi South 5.8 mph - N/A   Mostly Cloudy
1:55 AM 74.3 °F - 74.1 °F 99% 30.12 in 10.0 mi South 4.6 mph - N/A   Mostly Cloudy
2:15 AM 74.3 °F - 73.8 °F 98% 30.11 in 10.0 mi SSE 3.5 mph - N/A   Mostly Cloudy
2:35 AM 74.3 °F - 73.9 °F 99% 30.11 in 10.0 mi SSE 4.6 mph - N/A   Overcast
2:55 AM 74.3 °F - 73.9 °F 99% 30.10 in 7.0 mi SSE 5.8 mph - N/A   Overcast
3:15 AM 74.3 °F - 74.1 °F 99% 30.10 in 7.0 mi South 5.8 mph - N/A   Overcast
3:35 AM 74.5 °F - 74.3 °F 99% 30.09 in 10.0 mi SSE 4.6 mph - N/A   Overcast
3:55 AM 74.3 °F - 73.8 °F 98% 30.09 in 7.0 mi SSE 5.8 mph - N/A   Overcast
4:15 AM 74.3 °F - 73.8 °F 98% 30.09 in 7.0 mi South 4.6 mph - N/A   Overcast
4:35 AM 74.3 °F - 73.8 °F 98% 30.09 in 7.0 mi South 5.8 mph - N/A   Overcast
4:55 AM 74.3 °F - 73.9 °F 99% 30.09 in 7.0 mi South 5.8 mph - N/A   Mostly Cloudy
5:15 AM 74.3 °F - 73.9 °F 99% 30.08 in 7.0 mi South 5.8 mph - N/A Rain Light Rain
5:35 AM 73.8 °F - 73.8 °F 100% 30.08 in 7.0 mi South 3.5 mph - N/A   Scattered Clouds
5:55 AM 73.6 °F - 73.6 °F 100% 30.09 in 10.0 mi South 5.8 mph - N/A   Scattered Clouds
6:15 AM 73.8 °F - 73.6 °F 99% 30.09 in 10.0 mi South 3.5 mph - N/A   Mostly Cloudy
6:35 AM 73.8 °F - 73.4 °F 99% 30.09 in 7.0 mi South 6.9 mph - N/A   Mostly Cloudy
6:55 AM 73.9 °F - 73.6 °F 99% 30.09 in 7.0 mi South 5.8 mph - N/A   Scattered Clouds
7:15 AM 74.3 °F - 73.4 °F 97% 30.09 in 10.0 mi South 4.6 mph - N/A   Mostly Cloudy
7:35 AM 75.2 °F - 73.9 °F 96% 30.09 in 10.0 mi South 4.6 mph - N/A   Mostly Cloudy
7:55 AM 76.1 °F - 74.1 °F 94% 30.09 in 10.0 mi South 5.8 mph - N/A   Overcast
8:15 AM 77.0 °F - 74.5 °F 92% 30.09 in 10.0 mi South 5.8 mph - N/A   Overcast
8:35 AM 77.0 °F - 74.3 °F 91% 30.10 in 10.0 mi South 9.2 mph - N/A   Overcast
8:55 AM 77.0 °F - 73.9 °F 90% 30.10 in 10.0 mi South 9.2 mph 16.1 mph N/A   Overcast
9:15 AM 78.1 °F - 73.8 °F 86% 30.10 in 10.0 mi South 12.7 mph 16.1 mph N/A   Overcast
9:35 AM 78.4 °F - 73.6 °F 85% 30.09 in 10.0 mi SSW 9.2 mph - N/A   Overcast
9:55 AM 79.9 °F - 73.9 °F 82% 30.09 in 10.0 mi SSW 10.4 mph - N/A   Overcast
10:15 AM 81.0 °F 85.1 °F 71.4 °F 73% 30.09 in 10.0 mi South 13.8 mph 23.0 mph N/A   Mostly Cloudy
10:35 AM 82.0 °F 86.7 °F 71.8 °F 71% 30.09 in 10.0 mi SSW 9.2 mph - N/A   Mostly Cloudy
10:55 AM 81.3 °F 85.8 °F 71.8 °F 73% 30.09 in 10.0 mi SSW 8.1 mph - N/A   Scattered Clouds
11:15 AM 81.9 °F 86.4 °F 71.8 °F 71% 30.08 in 10.0 mi SSW 6.9 mph - N/A   Scattered Clouds
11:35 AM 83.7 °F 89.2 °F 72.0 °F 68% 30.07 in 10.0 mi SSW 10.4 mph - N/A   Scattered Clouds
11:55 AM 83.3 °F 88.2 °F 71.4 °F 67% 30.07 in 10.0 mi SSW 6.9 mph - N/A   Scattered Clouds
12:15 PM 84.0 °F 88.7 °F 70.9 °F 64% 30.07 in 10.0 mi SW 8.1 mph - N/A   Scattered Clouds
12:35 PM 84.2 °F 89.0 °F 70.9 °F 64% 30.06 in 10.0 mi SSW 9.2 mph - N/A Rain Light Rain
12:55 PM 84.6 °F 89.4 °F 70.7 °F 63% 30.05 in 10.0 mi SSW 8.1 mph - N/A   Scattered Clouds
1:15 PM 85.1 °F 90.1 °F 70.7 °F 62% 30.04 in 10.0 mi South 9.2 mph 16.1 mph N/A   Scattered Clouds
1:35 PM 86.0 °F 91.5 °F 71.2 °F 61% 30.03 in 10.0 mi SSW 12.7 mph - N/A   Scattered Clouds
1:55 PM 86.5 °F 92.1 °F 71.1 °F 60% 30.03 in 10.0 mi South 11.5 mph - N/A   Scattered Clouds
2:15 PM 86.0 °F 91.1 °F 70.7 °F 60% 30.01 in 10.0 mi South 8.1 mph - N/A   Mostly Cloudy
2:35 PM 86.2 °F 93.8 °F 73.4 °F 66% 30.00 in 10.0 mi SSE 9.2 mph - N/A   Scattered Clouds
2:55 PM 81.7 °F 90.5 °F 78.6 °F 90% 30.01 in 7.0 mi South 5.8 mph - 0.02 in Rain Light Rain
3:15 PM 83.8 °F 92.8 °F 76.5 °F 78% 29.99 in 10.0 mi South 10.4 mph - N/A   Scattered Clouds
3:35 PM 84.9 °F 92.1 °F 73.8 °F 69% 29.98 in 10.0 mi SSE 11.5 mph 17.3 mph N/A   Mostly Cloudy
3:55 PM 85.1 °F 92.6 °F 73.8 °F 69% 29.97 in 10.0 mi SSE 10.4 mph 16.1 mph N/A   Scattered Clouds
4:15 PM 82.6 °F 88.3 °F 73.0 °F 73% 29.96 in 10.0 mi SSE 10.4 mph - N/A   Scattered Clouds
4:35 PM 82.4 °F 88.4 °F 73.8 °F 75% 29.96 in 10.0 mi South 9.2 mph 16.1 mph N/A   Scattered Clouds
4:55 PM 82.0 °F 87.2 °F 72.5 °F 73% 29.99 in 10.0 mi South 6.9 mph - N/A   Mostly Cloudy
5:15 PM 73.4 °F - 70.2 °F 90% 29.99 in 7.0 mi NW 4.6 mph 16.1 mph 0.03 in Rain Rain
5:35 PM 73.4 °F - 71.6 °F 94% 30.00 in 2.5 mi West 5.8 mph 19.6 mph 0.39 in Rain Heavy Rain
5:55 PM 71.2 °F - 70.0 °F 96% 30.00 in 1.5 mi SSE 3.5 mph - 0.84 in Rain Heavy Rain
6:15 PM 71.8 °F - 70.7 °F 96% 30.03 in - South 8.1 mph - 0.24 in Rain Heavy Rain
6:35 PM 71.8 °F - 70.7 °F 96% 30.03 in 10.0 mi South 6.9 mph - 0.27 in Rain Rain
6:55 PM 71.6 °F - 70.9 °F 98% 30.03 in 10.0 mi South 4.6 mph - 0.28 in Rain Light Rain
7:15 PM 71.1 °F - 70.7 °F 99% 30.02 in 7.0 mi SSE 4.6 mph - 0.04 in Rain Rain
7:35 PM 71.1 °F - 70.7 °F 99% 30.01 in 7.0 mi SSE 6.9 mph - 0.08 in Rain Rain
7:55 PM 70.9 °F - 70.2 °F 98% 30.01 in 10.0 mi SSE 4.6 mph - 0.09 in Rain Light Rain
8:15 PM 70.7 °F - 70.3 °F 99% 30.00 in 10.0 mi SSE 6.9 mph - N/A   Scattered Clouds
8:35 PM 70.7 °F - 70.3 °F 99% 29.99 in 10.0 mi SSE 9.2 mph - N/A   Clear
8:55 PM 70.7 °F - 70.7 °F 100% 29.99 in 10.0 mi SSE 5.8 mph - N/A   Scattered Clouds
9:15 PM 70.7 °F - 70.7 °F 100% 30.00 in 10.0 mi South 6.9 mph - N/A Rain Light Rain
9:35 PM 70.9 °F - 70.9 °F 100% 30.00 in 10.0 mi South 5.8 mph - N/A   Clear
9:55 PM 71.2 °F - 71.2 °F 100% 30.01 in 10.0 mi South 5.8 mph - N/A   Mostly Cloudy
10:15 PM 71.6 °F - 71.6 °F 100% 30.04 in 10.0 mi West 4.6 mph - N/A Rain Rain
10:35 PM 71.4 °F - 71.4 °F 100% 30.04 in 7.0 mi SW 4.6 mph - 0.03 in Rain Rain
10:55 PM 71.2 °F - 71.2 °F 100% 30.03 in 2.5 mi Calm Calm - 0.26 in Rain Heavy Rain
11:15 PM 71.4 °F - 71.4 °F 100% 30.02 in 4.0 mi Calm Calm - 0.05 in Rain Heavy Rain
11:35 PM 70.9 °F - 70.9 °F 100% 30.00 in 5.0 mi Calm Calm - 0.10 in Rain Rain
11:55 PM 71.1 °F - 71.1 °F 100% 30.00 in 10.0 mi Calm Calm - 0.11 in Rain Light Rain